Location: Canyon Rim
(40.8777°N, 111.8641°W)
Time: 08:13:43
(UTC+00:00)

X-37B - Pass Details

Date: 26 April 2021
Orbit: 386 x 389 km, 45.0° (Epoch: 08 May)

Event Time Altitude Azimuth Distance (km) Brightness Sun altitude
Exits shadow 09:40:15 16° 68° (ENE) 1,115 3.5 -27.2°
Drops below altitude 10° 09:41:03 10° 74° (ENE) 1,414 4.1 -27.1°
Sets 09:43:13 0° 83° (E) 2,268 5.1 -26.8°
